WB2CMF Farmingville NY US current weather conditions

sailwx.info

Wind from 195 at 0 knots gusting 3

Air temperature 30.0° C
Dewpoint 25.9° C

Last reported at 2020-Aug-12 18:00 UTC.
Time now 2020-Aug-12 18:46 UTC

Location: N 40°50' W 073°04'.
View on Google Maps.

See reports from other nearby stations

  
Tides and Currents Weather Stations Pressure Air Temp Water Temp Dewpoint Dewpoint Depression Visibility Wind Speed Wind Dir Waves Ship Positions
date/time (UTC)wind fromknots sea level pressurealtimeterstation pressurevisibilityair tempwater tempwave heightnotes
2020-Aug-12 18:00 195 0 gusting 3 30.0
2020-Aug-12 17:30 200 28.9
2020-Aug-12 17:00 200 28.3
2020-Aug-12 16:30 202 28.3
2020-Aug-12 16:00 202 27.8
2020-Aug-12 15:30 157 26.1
2020-Aug-12 15:00 199 26.1
2020-Aug-12 14:30 199 26.1
2020-Aug-12 14:00 198 25.6
2020-Aug-12 13:30 201 25.0
2020-Aug-12 13:00 200 24.4
2020-Aug-12 12:30 200 0 gusting 1 23.9
2020-Aug-12 12:00 199 0 gusting 1 23.3
2020-Aug-12 11:30 198 0 gusting 0 23.3
2020-Aug-12 11:00 198 22.8
2020-Aug-12 10:30 198 22.2
2020-Aug-12 10:00 198 2 gusting 3 23.9
2020-Aug-12 09:30 200 23.9
2020-Aug-12 09:00 195 1 gusting 1 23.9
2020-Aug-12 08:30 198 0 gusting 2 24.4
2020-Aug-12 08:00 198 0 gusting 2 24.4
2020-Aug-12 07:30 202 0 gusting 2 24.4
2020-Aug-12 07:00 202 1 gusting 3 24.4
2020-Aug-12 06:30 196 24.4
2020-Aug-12 06:00 203 1 gusting 4 25.0
2020-Aug-12 05:30 198 0 gusting 4 25.0
2020-Aug-12 05:00 193 2 gusting 5 25.0
2020-Aug-12 04:30 200 2 gusting 6 25.0
2020-Aug-12 04:00 195 2 gusting 5 25.6
2020-Aug-12 03:30 193 3 gusting 6 25.6
2020-Aug-12 03:00 186 2 gusting 6 25.6
2020-Aug-12 02:30 198 1 gusting 6 25.6
2020-Aug-12 02:00 193 1 gusting 7 25.6
2020-Aug-12 01:30 197 3 gusting 6 25.6
2020-Aug-12 01:00 198 2 gusting 6 25.6
2020-Aug-12 00:30 198 3 gusting 6 25.6
2020-Aug-12 00:00 202 2 gusting 4 25.6
2020-Aug-11 23:30 195 1 gusting 5 26.1
2020-Aug-11 23:00 197 0 gusting 6 26.1
2020-Aug-11 22:30 195 26.1
2020-Aug-11 21:30 204 3 gusting 8 27.2
2020-Aug-11 21:00 189 1 gusting 6 27.8
2020-Aug-11 20:30 200 3 gusting 8 27.2
2020-Aug-11 20:00 201 2 gusting 7 27.8
2020-Aug-11 19:30 212 4 gusting 6 27.2
2020-Aug-11 19:00 188 4 gusting 6 27.2
2020-Aug-11 18:30 194 5 gusting 6 27.8
2020-Aug-11 18:00 128 1 gusting 6 27.8
2020-Aug-11 17:30 198 2 gusting 6 27.8
2020-Aug-11 17:00 193 2 gusting 6 27.8
2020-Aug-11 16:30 149 1 gusting 5 28.3
2020-Aug-11 16:00 198 2 gusting 5 28.9
2020-Aug-11 15:30 192 1 gusting 5 28.3
2020-Aug-11 15:00 195 1 gusting 3 28.3
2020-Aug-11 14:30 198 1 gusting 4 26.7
2020-Aug-11 14:00 198 1 gusting 3 25.6
2020-Aug-11 13:30 198 1 gusting 2 25.0
2020-Aug-11 13:00 198 0 gusting 2 25.0
2020-Aug-11 12:30 202 1 gusting 3 25.0
2020-Aug-11 12:00 195 0 gusting 2 24.4
2020-Aug-11 11:30 200 23.9
2020-Aug-11 11:00 202 23.3
2020-Aug-11 10:30 202 22.8
2020-Aug-11 10:00 202 22.8
2020-Aug-11 09:30 202 22.8
2020-Aug-11 09:00 202 23.3
2020-Aug-11 08:30 202 23.3
2020-Aug-11 08:00 203 23.3
2020-Aug-11 07:30 198 23.9
2020-Aug-11 07:00 201 1 gusting 2 23.9
2020-Aug-11 06:30 198 1 gusting 2 23.9
2020-Aug-11 06:00 200 0 gusting 2 23.9
2020-Aug-11 05:30 199 0 gusting 2 23.9
2020-Aug-11 05:00 200 1 gusting 2 24.4
2020-Aug-11 04:30 191 3 gusting 3 24.4
2020-Aug-11 04:00 198 2 gusting 2 24.4
2020-Aug-11 03:30 195 2 gusting 4 24.4
2020-Aug-11 03:00 195 0 gusting 3 24.4
2020-Aug-11 02:30 198 2 gusting 4 24.4
2020-Aug-11 02:00 198 1 gusting 4 25.0
2020-Aug-11 01:30 200 0 gusting 4 25.0
2020-Aug-11 01:00 200 1 gusting 4 25.0
2020-Aug-11 00:30 203 0 gusting 5 25.6
2020-Aug-11 00:00 200 3 gusting 4 25.6
2020-Aug-10 23:30 201 2 gusting 6 26.1
2020-Aug-10 23:00 200 3 gusting 6 26.7
2020-Aug-10 22:30 200 3 gusting 6 27.2
2020-Aug-10 22:00 191 1 gusting 5 27.8
2020-Aug-10 21:30 204 1 gusting 6 28.3
2020-Aug-10 21:00 162 1 gusting 5 28.9
2020-Aug-10 20:30 209 1 gusting 5 29.4
2020-Aug-10 20:00 198 3 gusting 6 30.0
2020-Aug-10 19:30 199 0 gusting 6 30.6
2020-Aug-10 19:00 185 4 gusting 6 31.1
2020-Aug-10 18:30 187 1 gusting 5 31.1
2020-Aug-10 18:00 203 3 gusting 5 31.1